Regional Weather Roundup
Issued by NWS

Home | Current Version | Previous Version | Text Only | Print | Product List | Glossary Off
Versions: 1 2 3 4 5 6 7 8 9 10 11 12 13 14 15 16 17 18 19 20 21 22 23 24 25 26 27 28 29 30 31 32 33 34 35 36 37 38 39 40 41 42 43 44 45 46 47 48 49 50

000
ASUS43 KLMK 252202
RWRKY
KENTUCKY REGIONAL WEATHER ROUNDUP
NATIONAL WEATHER SERVICE LOUISVILLE KY
500 PM EST THU DEC 25 2014

NOTE "FAIR" INDICATES FEW OR NO CLOUDS BELOW 12,000 FEET
WITH NO SIGNIFICANT WEATHER AND/OR OBSTRUCTIONS TO VISIBILITY.

KYZ001>023-026-027-061>063-070>075-252300-
WESTERN AND SOUTH CENTRAL KENTUCKY

CITY           SKY/WX    TMP DP  RH WIND       PRES   REMARKS
PADUCAH        CLEAR     49  33  54 S9        30.12R
HENDERSON      CLEAR     48  32  53 S10       30.13R
OWENSBORO      CLEAR     47  36  65 S13       30.15R
HOPKINSVILLE   CLEAR     49  33  53 S8        30.16R
BOWLING GREEN  CLEAR     47  33  58 S10       30.19R
GLASGOW        NOT AVBL
$$

KYZ024-025-028>034-038-045-046-053-252300-
NORTH CENTRAL KENTUCKY

CITY           SKY/WX    TMP DP  RH WIND       PRES   REMARKS
LOUISVILLE/SDF PTCLDY    45  32  60 S7        30.15S
LOUISVILLE/LOU CLEAR     45  32  60 SW6       30.16R
FORT KNOX      CLEAR     43  33  68 S9        30.15R
$$

KYZ035>037-039>044-047>052-055>060-089>105-252300-
NORTHEAST KENTUCKY

CITY           SKY/WX    TMP DP  RH WIND       PRES   REMARKS
LEXINGTON      PTCLDY    39  31  72 SW7       30.17R WCI  34
COVINGTON      CLOUDY    41  30  65 SW7       30.15R
FRANKFORT      MOCLDY    41  31  67 S10       30.16R
$$

KYZ054-064>069-076>088-106>120-252300-
SOUTHEAST KENTUCKY

CITY           SKY/WX    TMP DP  RH WIND       PRES   REMARKS
JACKSON        MOCLDY    42  31  64 CALM      30.18R
LONDON         CLEAR     44  29  55 SW5       30.19R
SOMERSET       NOT AVBL
MIDDLESBORO    CLEAR     45  32  60 S3        30.20R
MONTICELLO     CLEAR     45  34  65 CALM      30.22R
$$



USA.gov is the U.S. government's official web portal to all federal, state and local government web resources and services.